Theta_e
316 318 318 319 318 317 315 314 317 320 319 320 321 322 322 320 318 317 316 314 311 312 317 314 314 315 314 314 306 301 303 302 301 301 299 297 296 296 295 295 294 293 293 292 292 292 292 293 294 295 297 298 300 302 304 306 308 308 311 314 313 313 316 317 315 314 312 310 308 307 305 302 301 302 303 302 303 302 302 303 304 304 305 305 306 306
313 318 319 317 317 316 314 313 313 315 316 315 316 317 318 318 317 315 313 314 312 313 316 313 313 315 315 312 304 302 306 304 301 301 299 297 296 295 295 294 294 294 292 292 291 291 292 292 293 294 296 298 298 299 301 302 303 305 309 311 310 313 317 316 314 314 311 307 307 305 302 301 301 301 301 300 300 300 300 301 301 301 302 302 303 303
315 318 317 314 315 315 313 312 311 312 313 313 314 314 316 315 316 317 313 312 312 312 317 315 313 315 314 306 301 301 303 299 297 299 298 297 296 295 295 294 293 293 293 292 291 290 291 291 292 293 294 295 295 296 298 300 302 304 306 306 308 311 312 312 312 312 309 306 306 305 302 301 300 298 298 298 297 298 299 299 299 299 300 300 300 300
320 321 317 313 314 315 314 314 312 312 312 313 314 313 315 315 317 321 316 313 312 310 314 315 312 314 311 304 302 299 299 298 296 297 296 296 296 294 294 293 293 293 292 292 291 290 290 290 291 292 292 293 294 296 297 300 301 302 302 303 305 307 307 307 308 307 307 305 305 304 301 300 299 297 297 298 296 297 297 297 297 297 298 299 299 299
321 320 313 311 314 315 315 314 313 314 315 316 315 313 315 315 316 320 316 314 315 312 311 312 315 320 315 310 308 301 298 299 297 297 297 295 295 294 294 293 292 292 292 291 291 290 289 289 290 290 291 292 293 294 295 298 299 299 300 301 302 303 304 304 304 304 304 304 303 301 300 299 298 296 296 296 293 293 293 293 293 293 295 296 296 297
320 316 312 315 315 313 315 316 316 317 317 319 319 315 314 315 317 317 315 315 318 319 313 310 320 330 323 317 310 302 301 300 299 299 298 296 295 295 295 294 293 292 291 290 290 289 289 289 289 289 290 290 291 291 293 296 298 299 299 300 301 301 301 302 302 302 303 302 301 301 299 297 294 292 290 290 288 289 289 289 289 290 290 292 292 293
317 312 313 319 318 315 315 317 317 316 317 321 321 317 313 313 315 317 316 318 322 322 313 309 318 328 327 322 311 302 303 301 300 300 298 297 296 295 295 294 294 293 292 291 289 288 288 288 288 289 289 289 290 290 293 296 299 300 300 300 300 300 300 300 301 301 302 301 300 298 295 291 289 287 287 287 287 287 287 287 288 288 288 288 289 289
316 313 313 316 319 318 316 318 317 313 320 324 318 317 316 314 316 319 318 319 322 320 315 314 316 320 323 320 309 302 305 303 301 301 299 297 296 295 295 294 293 293 292 292 291 288 288 288 288 288 288 288 289 290 292 295 297 298 299 299 299 299 298 299 299 299 300 298 296 293 290 288 288 287 287 287 287 287 287 288 288 287 287 287 287 287
314 317 317 315 317 317 316 320 317 313 321 322 312 313 316 315 317 319 318 318 316 314 320 321 315 316 324 320 308 303 306 307 305 303 300 298 297 295 295 294 293 293 292 291 290 289 287 287 287 287 287 288 288 289 290 291 293 295 296 297 296 296 295 295 296 296 295 294 293 291 289 288 288 288 288 288 288 288 288 288 287 287 287 287 287 287
312 313 315 316 318 318 318 316 312 314 319 314 308 311 314 313 316 316 317 318 314 315 324 324 316 318 325 325 314 308 311 312 308 304 301 299 297 296 295 294 293 293 292 289 288 288 287 287 287 287 287 287 287 287 288 289 290 292 293 294 294 293 292 292 292 293 292 291 291 290 289 288 288 288 288 288 288 288 288 288 287 287 287 286 286 286
310 307 310 315 317 317 315 310 307 313 314 309 312 317 316 316 318 318 319 317 315 320 323 318 316 316 320 327 322 314 316 315 308 305 301 299 298 296 295 294 293 293 292 290 288 287 287 287 286 287 286 286 286 286 287 288 289 290 291 291 291 290 290 290 290 290 290 289 289 289 289 288 288 288 288 288 288 288 288 287 287 286 286 286 286 286
310 309 311 313 312 312 313 310 307 307 307 311 320 321 318 320 319 319 321 318 319 327 321 312 312 314 318 328 323 315 313 309 306 306 302 299 298 296 295 294 293 293 293 291 289 287 287 287 286 286 286 286 286 286 287 288 288 289 290 290 290 289 289 289 289 289 289 289 289 289 288 288 288 288 288 288 288 287 287 287 287 286 286 286 286 285
314 315 314 310 308 311 317 315 310 308 307 313 321 321 321 325 322 322 323 319 321 323 314 310 313 314 317 322 318 316 313 305 303 304 301 299 298 296 295 294 294 293 293 292 290 287 286 286 286 286 286 286 286 286 287 288 288 289 289 289 289 288 288 289 289 289 289 289 289 288 288 288 288 288 288 288 287 287 287 287 287 286 286 286 285 285
318 317 312 310 311 312 317 317 315 314 312 313 318 321 324 327 329 332 326 319 319 317 310 309 313 314 318 318 314 313 308 301 300 301 300 299 297 296 295 293 294 293 293 292 290 287 286 286 286 286 286 286 286 286 287 287 288 288 288 288 289 288 288 289 289 289 289 288 288 288 288 288 288 288 288 288 288 287 287 287 287 286 286 286 285 284
321 322 315 314 315 313 314 315 318 318 313 313 317 318 322 327 332 333 329 326 325 319 312 310 313 321 323 315 307 304 300 297 298 298 298 299 297 296 294 293 294 293 292 292 290 287 286 287 286 286 286 286 286 287 287 288 288 288 288 288 289 288 288 289 289 289 288 288 288 288 288 288 288 288 288 288 288 288 287 287 287 286 286 285 285 284
318 323 318 312 311 311 312 314 315 315 314 313 313 315 319 323 326 322 317 320 321 319 315 313 316 322 317 307 299 299 298 296 297 297 297 298 296 295 294 293 293 293 292 292 291 288 287 287 287 286 286 286 286 287 287 288 288 288 288 288 288 288 288 288 288 288 288 288 288 288 288 288 288 288 288 288 288 288 287 287 287 286 286 285 285 285
318 321 315 310 309 309 311 312 312 315 317 313 312 318 318 315 321 322 312 308 311 318 318 315 318 317 312 308 302 299 301 298 296 297 297 297 295 294 294 293 293 292 291 291 290 288 287 287 287 286 286 286 286 287 287 287 288 288 288 288 288 288 288 288 288 288 288 287 287 287 288 288 288 288 288 288 287 287 287 287 287 286 286 285 285 285
323 323 314 310 313 309 305 310 312 311 313 315 317 320 314 311 319 323 318 315 315 320 319 315 317 317 315 316 309 302 306 304 298 296 296 295 295 294 294 293 293 292 291 290 289 287 286 287 287 286 287 286 286 287 287 287 288 288 288 288 288 288 288 287 287 287 287 287 287 287 287 287 287 287 287 287 287 287 287 287 286 286 286 285 285 284
320 323 316 310 312 310 306 312 314 310 309 314 316 314 314 318 321 318 319 322 321 322 323 317 313 315 316 318 315 310 312 310 301 296 295 295 295 294 294 294 293 292 291 290 289 287 286 287 287 287 287 287 287 287 287 287 288 288 288 288 288 288 287 287 287 287 287 287 287 287 287 287 287 287 287 287 287 287 287 287 286 285 285 284 284 284
316 320 320 311 310 312 310 313 317 314 309 311 311 309 313 318 320 319 319 320 321 322 324 319 315 318 317 317 319 317 313 309 303 298 296 296 295 295 295 294 293 292 291 290 290 288 286 287 287 287 287 287 287 287 287 287 287 288 288 288 288 287 287 287 287 287 287 287 287 287 287 287 286 286 286 286 286 287 287 286 285 284 284 283 283 283
314 316 321 313 309 312 315 315 316 315 312 313 313 312 314 314 315 319 317 315 320 323 325 322 319 320 317 314 318 317 310 304 303 300 298 296 295 295 295 294 294 292 291 290 289 287 286 287 287 287 287 287 287 287 287 287 287 287 287 287 287 287 287 287 287 287 287 287 287 287 287 286 286 286 286 286 286 286 286 285 284 284 283 282 282 282
317 318 322 318 313 316 319 314 310 311 312 314 314 314 315 315 315 318 317 314 316 319 322 322 320 319 316 310 310 311 307 303 300 300 298 297 296 296 295 295 294 292 291 290 289 287 286 287 287 287 287 287 287 287 287 287 287 287 287 287 287 287 287 287 287 287 287 287 287 287 286 286 286 286 286 286 286 285 285 284 283 282 282 282 281 281
319 320 322 321 318 317 315 308 305 308 310 311 313 315 316 315 316 319 319 317 316 315 316 317 319 319 311 305 306 306 304 302 299 298 298 297 296 295 295 295 293 292 292 290 288 287 287 287 287 288 288 287 287 287 287 287 287 287 287 287 287 287 287 287 287 287 287 287 287 286 286 286 286 286 286 286 285 284 284 283 283 282 282 281 281 281
316 319 320 320 319 314 311 309 307 307 309 312 314 315 315 315 317 317 317 318 318 317 315 315 319 318 309 304 305 302 300 301 298 297 298 297 297 296 295 295 293 292 292 290 288 286 287 287 287 287 288 288 288 287 287 287 287 287 287 287 287 287 287 287 287 287 287 287 287 287 286 286 286 286 285 285 285 284 283 283 282 282 281 281 281 281
316 320 321 321 322 318 316 316 313 310 312 316 316 315 315 316 316 315 314 316 317 317 317 317 319 318 311 305 304 302 301 302 299 296 297 297 297 297 295 295 294 293 292 291 289 287 287 287 287 287 288 288 288 288 288 288 287 287 287 287 287 287 287 287 287 287 287 287 287 287 286 286 286 285 285 285 284 283 283 282 282 281 281 281 281 280
318 321 320 320 323 322 322 321 318 317 316 315 315 314 314 315 314 315 316 316 316 315 316 317 317 317 312 307 307 305 304 306 302 297 296 297 297 297 296 295 294 293 292 291 289 288 287 287 287 287 287 288 288 288 288 288 288 287 288 288 288 288 288 288 287 287 287 287 287 286 286 286 286 285 285 284 284 283 282 282 281 281 281 280 280 280
320 320 318 320 321 321 323 321 317 319 319 318 317 316 316 314 314 316 318 317 317 317 316 316 316 318 315 311 310 308 307 310 307 300 297 297 297 296 296 295 295 294 292 291 289 288 288 287 287 287 288 288 288 288 288 287 288 288 288 288 288 288 288 287 287 287 287 287 286 286 286 286 285 285 285 284 283 283 282 282 282 281 281 280 279 279
321 320 318 320 321 320 322 320 317 318 318 318 319 318 317 315 313 315 317 317 318 318 318 318 315 316 317 313 311 311 309 310 308 303 300 298 297 296 295 296 296 295 293 291 290 289 288 288 288 288 288 288 288 288 288 287 288 288 288 288 288 287 287 287 287 287 287 286 286 286 286 285 285 285 284 284 284 283 283 282 282 281 280 280 279 279
321 320 317 318 319 317 316 315 316 317 316 316 318 318 317 316 314 314 315 315 316 317 318 317 315 315 316 314 313 311 309 309 309 304 301 298 297 296 296 296 296 296 294 293 291 290 289 288 288 288 288 288 288 288 287 287 288 287 287 288 287 287 287 287 287 287 286 286 286 285 285 285 284 284 284 284 284 284 283 282 281 281 280 279 279 278
318 319 316 316 318 317 313 312 314 315 314 314 314 315 315 314 313 314 314 313 313 315 314 312 312 314 313 313 314 311 307 306 306 302 299 299 299 298 297 297 297 296 294 293 291 290 289 288 288 288 287 288 288 288 287 287 287 287 287 287 287 287 287 287 286 286 286 286 285 285 284 284 284 283 283 283 284 284 283 282 281 280 279 279 278 278
314 316 313 313 317 316 310 309 310 311 312 312 313 313 311 311 312 311 311 311 311 312 311 309 310 311 310 311 312 311 307 304 304 303 302 302 301 299 298 297 297 296 294 293 292 291 290 289 288 287 287 288 288 288 288 287 287 287 287 287 287 287 287 286 286 286 286 285 284 284 284 284 283 283 283 283 283 283 282 281 280 279 279 278 278 277
312 312 310 311 317 315 308 307 308 307 307 309 311 311 309 310 311 309 308 309 310 311 310 310 311 311 310 308 308 308 307 306 306 305 304 303 301 300 300 299 297 297 295 293 292 291 291 289 288 287 287 288 288 289 288 287 287 287 287 287 287 286 286 285 285 285 285 284 284 284 284 283 283 283 283 282 282 282 281 280 279 278 278 277 277 277
310 311 311 311 315 314 306 304 306 305 308 311 311 310 310 309 309 307 307 307 308 309 311 311 311 311 309 306 304 306 306 305 304 304 303 304 302 300 300 299 298 297 296 295 294 292 291 289 288 288 288 288 288 289 288 287 287 287 287 287 286 286 285 285 285 285 284 283 283 283 283 283 282 282 281 281 281 281 280 279 278 277 277 276 276 276
308 311 312 311 314 311 302 301 305 308 313 313 307 307 309 309 308 308 307 307 307 307 309 309 308 308 307 306 305 305 304 303 302 301 300 301 302 301 300 299 298 298 296 295 294 292 290 289 289 288 288 288 288 289 288 287 287 287 287 287 286 285 285 284 284 284 283 283 283 283 282 282 281 281 280 280 280 280 279 278 277 277 276 276 275 275
308 309 310 310 311 306 300 303 309 313 313 305 296 297 303 305 307 308 307 307 305 305 306 307 306 305 305 304 303 301 300 300 299 298 298 298 299 300 301 301 300 298 296 295 294 291 288 288 289 288 288 288 288 288 287 287 287 287 286 286 285 285 284 284 283 283 283 282 282 282 281 281 280 280 280 279 279 279 278 277 277 276 276 275 275 274
308 308 309 308 306 303 302 306 311 312 307 300 295 294 297 300 303 304 304 304 303 302 304 305 305 304 302 300 299 298 297 295 294 295 297 298 297 298 300 303 303 300 297 295 292 289 288 289 289 289 289 288 288 287 287 287 287 286 285 285 285 284 283 283 282 282 282 282 281 281 281 280 279 279 279 278 278 278 277 276 276 275 275 274 274 274
306 309 309 309 307 306 305 306 309 309 307 305 302 298 297 300 302 302 305 306 302 299 299 302 304 302 299 298 297 295 294 294 294 296 297 295 295 294 294 296 297 295 292 290 290 290 289 290 290 289 289 288 287 287 287 287 286 285 285 284 283 283 282 282 282 282 282 281 281 280 280 279 279 278 278 277 277 277 276 275 275 274 274 274 273 273
303 307 309 311 310 308 307 307 308 308 310 310 306 299 297 299 300 300 303 304 302 298 297 300 302 300 298 297 295 293 293 295 297 298 297 294 292 291 290 289 288 289 289 289 290 289 288 288 289 288 288 287 286 286 286 286 286 285 284 284 282 281 281 281 282 282 281 280 280 280 279 279 278 277 277 276 276 276 275 275 274 274 273 273 272 272
300 303 306 309 310 308 308 310 309 309 310 307 302 296 295 297 299 300 302 303 302 298 296 298 299 298 297 296 294 293 295 297 299 299 299 296 292 289 290 288 285 287 289 290 289 289 288 288 287 286 286 286 286 286 286 286 286 285 284 283 282 281 281 282 282 281 280 280 280 279 279 278 277 277 276 276 276 275 275 274 273 273 272 272 272 271
301 303 304 307 309 308 308 309 308 308 307 302 297 294 293 295 299 302 303 303 301 296 293 296 297 296 297 296 293 294 297 299 301 302 299 296 290 286 287 288 285 286 288 289 288 288 287 287 287 286 286 287 287 286 286 286 285 284 283 282 281 281 282 282 281 280 280 279 279 279 278 277 276 276 275 275 275 274 274 273 273 272 271 271 271 271
301 302 303 305 308 308 309 309 308 308 304 297 294 293 293 295 299 301 304 305 301 294 290 294 296 295 294 294 293 295 298 297 298 298 295 293 292 288 285 285 285 286 287 287 287 287 287 287 287 288 288 287 287 286 286 285 284 283 282 281 281 282 282 281 280 279 279 279 279 278 277 276 276 275 275 274 274 274 273 272 272 271 271 270 271 271
301 301 302 304 305 306 307 307 307 308 302 295 292 291 292 296 301 303 304 301 298 296 291 291 294 294 293 293 292 295 297 293 291 293 292 292 294 290 285 283 284 285 286 286 285 286 286 286 286 287 287 287 286 286 285 284 283 282 281 281 281 282 281 280 279 279 279 278 278 277 277 276 275 275 274 274 273 273 272 271 271 270 270 270 270 270
302 303 302 303 304 304 304 305 306 307 300 292 292 292 293 298 304 304 299 293 293 296 294 292 294 292 291 293 291 292 294 291 290 292 291 290 292 289 284 283 284 285 285 285 285 285 285 286 286 286 286 286 285 285 284 283 282 281 280 281 281 281 280 279 279 278 278 278 277 277 276 275 274 274 274 273 272 272 271 270 270 270 270 270 270 270
302 303 303 303 303 303 305 305 304 302 296 292 296 298 296 298 301 300 298 294 292 293 293 294 294 290 289 293 293 290 291 291 291 292 291 291 293 289 284 283 284 285 285 286 286 286 285 285 285 285 284 284 284 284 283 282 282 280 280 281 281 280 279 278 278 278 277 277 277 276 275 274 274 273 273 272 271 271 270 270 269 269 269 269 269 269
301 300 301 303 302 301 304 304 298 295 292 292 298 301 297 297 297 296 297 297 294 292 291 293 295 290 287 290 291 290 291 293 293 292 292 294 296 291 285 284 284 285 286 286 285 285 285 284 284 282 282 282 282 282 282 281 281 280 280 280 280 279 279 278 278 277 277 277 276 275 274 274 273 272 271 271 270 270 269 269 269 269 269 269 269 268
295 293 295 299 299 296 296 297 294 293 292 292 295 297 295 295 296 295 297 298 295 292 291 293 295 292 288 288 290 291 293 294 294 292 291 293 294 288 282 283 284 285 285 284 284 284 283 282 282 281 280 280 280 280 280 280 280 280 281 280 279 279 278 278 277 277 277 276 275 274 273 273 272 271 270 270 269 269 268 268 268 268 268 268 268 268
293 291 292 295 297 296 295 294 293 294 293 292 292 293 293 294 293 292 294 296 294 292 290 290 292 291 287 287 290 293 294 293 293 293 291 291 292 286 280 281 283 283 284 284 284 283 282 281 280 280 279 279 279 279 279 279 278 279 279 279 279 278 278 277 277 277 276 275 274 273 273 272 271 270 269 269 268 268 268 268 268 268 268 268 268 267
295 293 293 294 295 295 295 292 290 291 292 291 291 292 292 294 293 291 291 292 292 292 290 288 288 289 289 289 290 292 294 292 292 294 292 290 290 286 280 280 283 283 283 284 283 282 281 281 280 280 279 279 280 279 278 278 277 277 277 277 277 277 277 277 277 276 275 274 273 273 272 271 270 269 269 268 268 267 267 267 267 267 268 268 267 266
294 293 295 295 293 292 292 289 288 291 292 291 291 291 291 292 293 292 291 289 290 292 291 289 286 286 288 291 290 289 292 292 291 293 294 292 290 284 280 282 284 283 283 283 283 282 282 282 282 281 280 280 280 278 277 276 276 275 275 276 276 276 276 276 276 275 274 273 272 272 271 270 269 268 268 267 267 267 267 267 267 267 267 268 267 266
292 294 294 293 292 293 292 290 290 293 294 293 292 292 291 290 290 290 291 291 291 291 292 292 289 284 283 285 286 287 292 293 289 288 291 290 286 283 282 283 284 283 283 283 282 282 282 282 282 281 280 279 278 277 276 276 275 274 275 275 275 276 276 275 275 274 273 272 271 270 269 268 268 267 267 267 266 267 267 267 267 266 266 266 267 266
291 293 293 292 293 294 293 292 291 292 294 294 293 292 291 290 290 290 291 292 292 291 290 291 292 289 286 284 281 284 291 292 286 285 289 288 283 282 284 284 283 283 283 282 281 281 281 281 280 279 279 278 276 276 276 275 275 274 274 275 275 275 274 274 274 273 272 271 270 269 268 267 267 266 266 266 266 266 266 266 267 267 266 265 265 265
Wind_Speed
3 3 3 5 6 8 10 9 6 4 5 5 4 4 4 4 5 4 3 4 1 1 4 4 4 7 8 4 3 2 2 5 4 4 4 4 4 4 4 4 5 4 5 9 13 16 17 18 18 19 20 22 24 25 25 26 27 27 27 27 28 28 28 27 28 29 30 31 32 34 35 35 35 34 34 34 32 31 30 28 27 26 25 24 24 23
4 4 8 8 8 8 8 7 5 4 5 4 4 3 3 4 6 5 2 4 1 2 3 2 1 7 5 2 4 3 3 4 3 3 3 4 4 3 4 4 4 3 4 9 14 17 18 18 19 21 22 23 24 24 25 26 27 27 28 28 27 26 25 25 25 26 29 31 31 32 34 34 33 33 34 34 32 31 29 29 28 27 26 24 24 24
2 5 11 8 5 5 3 5 6 4 4 2 3 3 3 3 3 4 2 4 2 3 3 3 2 6 2 2 3 3 3 3 2 3 3 3 4 4 3 3 3 3 4 7 11 15 17 18 19 21 22 23 22 23 24 25 26 27 28 28 28 27 26 26 25 25 28 30 29 29 31 32 33 34 33 33 32 31 30 30 29 28 27 26 26 25
3 6 9 6 8 7 3 4 6 4 3 3 3 3 4 3 1 3 3 3 2 1 2 1 4 4 0 2 3 3 2 3 3 3 3 3 3 3 2 2 3 3 4 5 7 11 15 17 18 20 20 20 21 23 25 26 26 27 27 27 29 29 29 30 29 29 30 29 29 29 30 31 32 33 31 31 31 31 31 31 30 29 28 27 28 27
6 5 2 6 7 8 4 3 6 5 2 4 5 6 5 4 6 6 2 2 2 3 0 0 4 4 1 1 0 1 1 2 2 3 3 3 2 2 2 2 3 3 3 3 4 7 12 14 15 16 17 19 21 23 25 26 27 26 25 25 26 28 30 30 31 31 30 30 30 31 31 30 31 32 31 31 33 32 33 33 32 31 30 29 29 29
6 4 4 6 4 6 6 4 6 7 3 3 5 10 10 8 7 5 1 2 3 3 2 1 1 4 2 2 3 2 0 1 2 2 2 1 1 1 2 2 2 2 2 2 3 5 9 11 12 14 16 18 21 22 24 26 27 27 26 25 25 26 27 28 28 28 27 28 28 28 29 31 33 34 32 32 33 34 35 34 33 33 32 31 31 30
3 1 3 5 5 6 5 4 6 7 5 2 5 9 10 7 6 5 4 3 1 2 2 2 2 3 5 3 2 4 2 1 1 1 0 1 1 1 1 1 1 1 2 2 3 5 7 9 10 12 14 17 20 21 23 26 28 29 28 27 27 27 27 28 28 27 26 28 29 30 33 35 36 35 31 31 33 33 33 33 33 33 32 31 31 31
3 3 2 4 5 5 5 4 6 8 7 3 3 5 7 7 7 6 6 4 2 2 2 2 3 2 4 3 1 3 3 1 2 2 2 2 1 1 1 1 1 0 1 1 2 4 6 7 8 10 12 16 19 22 25 27 29 30 29 29 28 28 29 29 30 29 29 31 34 36 38 38 36 35 32 31 32 32 31 32 32 31 31 30 30 29
3 5 5 7 5 4 5 4 8 11 5 4 2 5 6 6 6 5 6 3 1 1 3 3 2 2 4 4 1 2 2 2 5 6 5 4 3 3 2 1 1 0 0 0 0 2 4 5 7 9 12 15 19 22 26 28 30 31 31 30 30 30 30 30 31 32 32 34 35 37 38 38 35 34 32 31 30 30 30 31 30 30 30 29 29 28
1 4 7 8 5 5 4 1 6 9 4 3 5 7 6 6 5 4 4 3 2 1 4 5 3 3 4 4 1 1 3 5 6 6 5 5 5 4 3 3 2 1 0 0 1 2 4 5 7 9 12 15 18 22 25 28 30 32 32 31 31 31 31 31 31 33 34 34 35 36 36 36 33 32 31 30 30 29 28 29 29 28 28 27 27 27
1 1 2 4 4 5 4 3 1 3 3 6 6 6 6 6 4 3 2 3 3 2 5 5 3 2 2 5 3 3 3 4 6 5 4 5 5 5 4 4 3 2 1 1 2 4 5 7 8 10 13 15 18 21 25 27 29 31 31 31 32 31 31 31 31 32 34 33 34 34 33 33 31 30 29 29 29 28 27 28 27 26 26 26 26 25
3 1 2 1 2 5 6 5 3 3 3 5 4 5 4 3 3 3 4 3 1 4 5 3 1 2 3 4 3 3 3 2 5 7 9 9 7 6 5 4 4 3 3 2 2 4 6 8 9 11 14 16 18 21 24 26 28 29 30 30 31 31 30 30 31 31 32 32 32 31 31 30 29 28 28 29 29 27 27 27 26 25 24 24 24 24
2 3 3 0 1 4 6 5 4 3 2 3 4 5 4 1 3 2 2 1 3 5 3 1 1 2 5 6 4 4 4 3 3 5 9 12 10 9 7 6 4 3 3 3 3 4 6 8 10 11 14 16 19 21 24 26 27 28 29 29 31 30 29 29 30 30 31 31 30 29 29 29 28 28 28 28 27 26 26 25 25 24 24 23 23 23
2 4 2 3 1 3 7 6 2 1 2 4 5 5 4 2 2 1 3 2 3 3 2 2 1 1 4 5 3 5 4 3 2 2 4 8 10 9 8 6 5 4 4 4 3 4 6 9 10 11 14 16 19 21 23 25 26 28 28 28 30 29 28 28 28 28 29 29 28 27 27 26 26 26 26 26 26 25 24 24 24 24 23 23 22 22
3 3 4 6 2 4 9 6 5 6 4 3 3 4 4 4 4 4 4 3 3 2 2 3 1 4 4 2 2 2 2 3 2 2 3 4 5 6 5 5 5 5 5 4 4 5 8 10 10 12 14 16 19 21 24 25 26 27 27 28 29 28 26 26 26 26 27 27 26 25 25 24 24 24 24 24 23 23 23 22 22 22 22 22 21 20
3 5 4 1 0 6 8 4 5 6 3 1 1 4 2 4 4 2 3 5 3 1 2 2 3 4 4 1 2 2 2 2 1 1 3 5 5 6 5 5 6 6 5 5 4 6 9 11 11 12 14 17 19 22 24 25 25 26 27 27 27 26 25 24 24 24 24 24 23 23 22 22 21 21 21 21 21 20 20 20 20 21 21 20 20 20
2 4 4 2 2 2 4 3 3 3 3 2 2 3 4 3 6 4 1 1 3 1 3 2 3 3 0 1 2 2 2 2 1 1 5 6 6 7 6 7 7 7 6 6 5 7 10 12 12 14 16 17 20 22 24 25 25 25 26 26 26 25 24 23 22 22 22 22 21 20 20 19 18 19 19 18 18 18 18 19 19 19 20 20 20 20
4 1 3 1 1 1 1 2 4 3 3 5 3 5 3 2 4 3 2 2 3 2 4 1 4 3 2 2 2 1 3 5 4 3 4 6 7 8 8 8 8 8 6 6 6 8 12 13 14 15 16 18 20 22 24 24 24 24 24 24 25 24 23 22 21 20 19 18 18 18 16 16 15 15 15 15 15 15 15 17 17 18 19 19 19 19
4 1 4 1 2 1 2 3 3 4 2 4 4 3 3 3 1 2 2 1 1 3 4 2 2 3 4 4 3 5 9 9 7 5 6 9 10 10 10 10 10 8 6 6 6 8 12 15 16 17 18 19 20 22 23 24 24 24 23 22 23 22 21 20 18 18 17 15 16 15 14 13 13 12 12 12 12 13 14 15 16 17 17 18 17 18
3 3 2 2 1 1 2 2 3 2 1 2 1 1 2 2 3 2 2 3 2 2 3 2 1 3 5 6 8 12 13 12 10 8 10 12 12 12 12 11 11 9 8 8 7 9 13 17 18 19 20 21 22 22 23 24 23 23 23 22 22 21 20 18 16 16 15 13 13 13 12 11 10 9 10 10 10 12 14 15 15 16 17 17 16 17
3 2 3 1 2 2 2 2 6 7 4 2 2 3 1 0 2 1 1 2 3 3 2 3 4 4 4 3 8 10 8 10 13 12 11 11 12 13 12 11 11 9 9 9 9 10 14 18 19 20 21 21 21 22 22 23 23 23 22 22 21 20 19 18 16 14 13 13 11 10 10 9 8 7 7 8 10 12 13 13 14 15 15 15 15 16
2 2 3 2 1 3 4 3 3 4 4 4 4 5 5 3 3 2 3 1 2 2 3 2 4 5 3 2 4 4 3 7 10 10 10 11 13 13 12 12 11 10 11 10 9 11 15 18 20 21 21 21 21 22 23 23 23 22 22 22 21 20 18 17 15 13 12 12 10 8 8 6 5 6 6 7 9 10 12 13 14 15 15 16 17 18
3 3 3 3 3 4 4 3 1 1 1 3 2 3 4 3 4 4 6 3 1 1 2 2 3 4 3 2 2 3 3 5 7 8 9 10 12 13 11 10 9 9 9 8 8 12 16 19 21 21 22 21 22 23 23 23 22 22 22 21 20 19 17 15 14 13 12 10 9 7 6 4 3 3 5 7 9 11 13 15 16 17 17 18 19 19
2 3 3 1 2 1 2 3 2 1 2 2 2 1 4 3 1 2 4 2 3 4 3 2 4 4 2 1 2 2 2 3 6 8 9 8 8 8 9 9 9 9 7 6 8 12 16 18 18 19 20 21 23 24 24 23 23 22 22 21 20 18 17 15 14 12 11 9 7 5 4 2 2 3 6 9 11 13 14 15 16 16 17 17 18 19
3 3 4 2 0 1 1 0 0 1 1 3 2 2 3 4 3 2 0 2 2 5 7 5 7 4 1 2 2 2 0 2 5 6 7 7 6 7 9 10 9 8 6 6 7 10 13 15 16 18 21 22 24 24 24 24 23 23 22 21 19 18 16 15 13 12 11 8 6 5 4 2 2 4 7 9 11 12 13 14 15 16 17 18 19 20
4 4 5 5 5 5 4 3 3 2 2 1 1 2 3 5 6 3 1 2 4 3 6 6 6 2 1 2 3 3 1 3 5 5 6 6 7 8 10 10 8 7 8 8 8 8 10 13 16 19 21 23 25 25 25 25 24 23 22 20 19 17 16 15 14 12 11 9 7 5 3 1 2 5 7 9 11 13 14 16 17 18 20 20 21 22
3 2 5 7 7 7 5 4 3 4 4 3 3 5 6 7 8 6 2 4 4 2 3 7 5 4 5 3 4 5 4 5 5 5 7 7 8 9 8 7 7 7 7 8 7 7 9 12 16 18 21 24 25 24 25 26 24 23 22 20 19 17 16 15 14 12 11 9 7 5 2 0 2 5 7 10 12 14 16 18 19 20 21 22 22 23
4 3 6 7 8 6 5 4 4 4 3 6 7 8 10 9 10 10 9 8 5 4 8 9 6 7 9 6 7 8 6 6 6 6 8 8 8 7 5 5 7 7 7 7 8 9 10 11 14 18 22 24 24 23 24 25 24 23 22 20 19 18 17 15 14 13 12 10 7 5 3 1 3 6 8 11 13 15 17 18 19 20 21 21 22 23
5 4 4 6 6 5 3 4 5 5 4 6 8 11 13 11 11 13 14 9 7 7 10 4 6 10 8 5 9 10 7 8 7 6 7 6 5 5 6 7 9 9 9 10 10 11 10 11 14 19 23 23 22 22 23 25 25 23 22 21 20 19 17 16 15 14 12 9 7 5 3 1 3 5 8 10 12 14 16 18 19 20 20 21 22 23
3 2 3 5 5 4 2 4 5 6 5 4 8 14 14 11 11 12 13 10 9 11 6 3 4 9 6 5 8 8 5 5 4 3 4 4 5 6 7 8 9 9 9 10 10 10 10 12 17 19 20 21 23 24 25 27 27 25 24 22 21 19 18 17 16 14 11 9 8 5 3 2 3 5 7 10 12 14 16 17 18 19 20 21 22 22
1 1 3 5 2 3 1 4 4 5 6 6 13 17 10 6 8 11 10 7 7 8 5 3 7 10 5 6 7 5 2 3 2 2 4 5 6 7 8 8 8 8 9 9 9 9 10 13 16 18 20 23 26 28 29 29 28 26 24 23 22 21 19 18 16 14 12 10 8 6 3 2 4 6 8 10 12 14 16 17 18 19 20 21 21 22
2 1 2 4 3 3 1 5 5 3 2 6 18 17 8 8 9 8 7 7 8 8 8 8 10 9 5 5 5 4 3 4 5 5 4 5 5 7 8 8 8 9 9 8 9 10 10 11 15 19 23 27 30 31 32 31 29 28 26 25 23 21 20 19 16 14 12 10 8 5 4 4 5 7 9 11 13 15 16 17 18 19 20 21 21 21
4 4 2 3 4 1 0 4 5 4 1 7 15 12 13 13 8 3 4 7 9 10 8 9 10 7 4 5 5 6 6 6 6 5 5 5 5 6 7 8 8 8 8 9 10 10 11 14 19 24 28 30 32 34 34 33 31 30 28 26 24 23 21 19 17 14 12 10 8 5 4 5 6 8 10 11 13 15 16 17 18 19 20 21 21 21
4 5 3 4 3 1 1 3 5 4 5 6 4 4 12 16 12 8 9 11 11 9 6 5 4 3 5 7 8 8 7 6 5 5 5 5 5 6 6 7 8 8 8 8 8 9 12 16 20 24 27 29 30 32 32 31 30 30 28 26 25 23 21 19 17 15 12 9 7 5 5 6 8 9 11 12 14 15 16 18 18 19 20 21 21 21
6 6 3 2 3 2 2 4 4 6 7 3 4 4 4 8 12 13 12 10 10 11 8 6 5 4 7 8 6 4 4 4 3 4 5 5 5 6 5 6 8 8 7 7 7 10 14 17 19 21 24 26 27 28 29 29 29 29 28 27 25 23 21 19 17 14 12 9 7 6 6 7 8 10 11 13 14 15 17 18 18 19 20 21 21 21
7 6 2 2 3 2 2 5 6 5 3 2 5 4 2 4 5 5 5 8 10 11 10 9 9 9 8 6 3 3 3 2 1 3 6 6 6 6 6 7 7 7 7 7 8 11 14 16 19 21 22 24 26 27 29 30 30 29 28 27 25 23 22 19 17 14 11 9 8 7 7 8 9 11 12 13 14 16 17 18 18 19 20 21 21 21
4 5 3 3 4 3 3 6 3 4 5 4 2 2 3 5 6 6 4 8 9 8 9 8 10 12 7 4 4 3 3 2 3 4 7 8 7 7 8 8 7 7 8 8 8 9 10 12 15 17 19 21 24 27 29 30 30 29 28 27 25 24 22 19 17 14 12 10 9 8 9 9 10 11 12 13 15 16 17 17 18 19 20 21 21 22
1 3 4 5 4 4 4 4 2 3 8 7 4 4 3 4 6 7 3 5 5 7 11 11 12 11 5 6 4 3 4 2 3 5 5 6 7 6 7 9 10 9 9 9 8 7 8 9 11 14 17 20 24 27 28 30 30 29 28 27 26 25 22 20 17 15 13 11 9 9 10 10 11 12 13 14 15 17 17 18 18 19 19 20 22 23
1 0 2 3 3 3 4 4 5 6 7 3 4 3 1 4 6 7 2 5 5 7 10 11 11 9 6 7 6 5 5 2 4 6 5 5 6 6 6 7 10 11 12 10 9 8 8 9 10 13 16 20 24 27 28 30 30 29 29 28 27 25 23 21 18 16 13 11 10 10 11 11 11 13 14 15 16 17 18 18 19 19 20 20 22 23
2 1 1 4 4 5 6 5 4 4 4 2 5 4 2 4 7 7 2 7 6 6 7 9 10 8 7 8 6 6 6 5 5 6 5 5 5 7 8 8 8 11 13 11 10 10 10 12 13 15 19 22 25 27 29 29 30 30 29 28 27 26 25 22 18 15 13 12 11 10 11 11 12 13 14 16 17 17 17 18 19 19 20 21 22 23
1 0 1 4 6 7 9 6 3 3 3 4 6 6 5 4 6 3 7 6 4 6 6 7 9 7 8 9 7 5 6 6 5 3 2 4 4 5 9 9 8 8 10 11 12 12 13 15 16 17 20 23 25 27 29 30 30 30 29 28 28 28 25 20 17 15 13 12 11 10 11 12 12 14 15 16 17 18 17 17 19 19 20 21 22 23
2 1 1 3 4 4 5 4 3 4 3 6 5 3 4 4 2 5 6 3 5 8 7 6 7 7 8 9 8 7 6 4 5 3 2 4 4 4 6 8 8 7 8 9 11 14 16 17 18 19 21 23 26 28 30 31 32 30 29 29 30 27 23 19 17 15 13 12 11 11 11 12 13 14 15 16 17 18 17 17 18 19 20 21 22 23
5 4 2 4 4 2 2 4 4 4 3 10 9 2 1 4 5 5 2 1 3 7 8 7 6 7 8 8 8 8 5 3 4 4 4 4 5 4 5 8 10 10 10 11 13 16 18 19 20 22 22 23 27 29 30 32 32 30 30 30 29 25 21 19 17 15 13 11 11 11 12 13 14 14 15 16 17 17 17 17 17 18 19 20 22 23
4 4 3 4 3 3 4 6 4 2 6 11 10 5 5 6 5 5 6 4 2 4 6 6 6 7 9 9 8 8 5 3 4 5 5 5 5 5 6 8 10 11 13 14 16 17 20 21 21 22 23 24 26 29 31 33 33 31 31 30 27 23 21 19 17 14 13 12 11 12 13 14 14 15 15 15 16 16 16 16 17 17 18 19 20 22
4 4 5 3 3 4 5 4 1 2 6 9 7 4 6 6 4 5 7 6 4 4 5 5 6 8 9 8 7 6 6 6 6 5 5 6 6 6 7 9 12 14 15 16 16 17 20 22 21 21 23 25 26 29 32 34 33 32 31 29 25 23 21 19 16 14 13 12 13 13 14 14 14 14 14 14 15 16 15 16 17 17 17 18 20 21
2 2 3 1 1 3 1 2 2 0 4 8 7 3 3 4 4 5 6 5 6 6 6 6 7 8 9 8 6 6 6 7 6 6 6 6 5 6 7 10 13 15 15 16 17 18 19 20 19 20 23 25 27 30 32 33 33 32 30 28 25 23 21 19 17 15 14 13 14 15 15 14 14 13 13 14 14 15 15 16 16 17 17 18 19 20
2 3 2 1 1 2 2 2 4 2 4 7 7 4 2 3 4 5 5 4 5 6 7 6 5 6 7 8 8 8 8 7 7 6 6 6 6 6 8 10 13 15 17 18 19 18 18 19 20 22 24 27 29 30 32 33 33 31 28 26 25 24 21 19 17 16 15 15 15 15 15 14 13 13 13 13 14 14 14 15 16 17 18 18 19 19
1 3 3 2 3 3 3 3 2 2 3 4 5 5 5 6 5 5 4 2 4 4 6 5 4 6 6 7 9 10 8 7 8 8 6 6 6 7 9 13 15 16 16 18 18 18 19 21 24 25 27 29 31 31 32 32 32 30 27 25 25 23 21 19 18 16 15 15 15 15 14 14 14 13 13 13 13 14 14 14 15 17 17 17 17 17
3 3 3 3 3 1 1 2 0 4 5 5 5 7 8 7 6 5 4 3 5 4 5 5 6 7 8 9 10 9 9 8 8 8 8 7 6 7 11 15 17 16 16 16 18 20 21 23 26 27 29 31 31 31 32 32 31 30 28 26 24 23 21 19 18 16 15 15 15 14 14 14 13 13 13 13 13 14 13 13 15 17 17 16 15 15
4 4 3 3 2 3 3 4 5 2 2 6 7 10 11 9 6 5 4 5 6 7 7 7 7 7 8 9 9 8 8 9 8 8 8 7 8 11 15 16 16 16 16 17 18 20 23 25 26 27 29 29 29 29 31 32 31 30 28 26 24 23 21 19 18 17 16 16 15 14 13 13 13 13 13 13 13 14 13 13 13 15 17 16 13 12
5 6 6 5 4 5 6 8 8 5 4 6 7 9 10 7 7 7 8 8 8 8 8 8 8 8 8 10 12 12 10 8 9 10 8 8 12 16 17 17 17 17 17 18 18 20 23 25 25 26 27 27 27 28 30 31 31 31 29 27 25 23 21 19 18 17 16 15 14 13 13 13 12 12 12 13 13 14 14 14 13 12 14 14 11 9
Wind_Direction
109 126 190 216 203 194 199 197 189 156 132 136 140 144 186 219 263 252 246 290 326 147 261 247 247 266 271 309 3 340 31 59 54 53 51 44 45 37 38 33 23 29 16 15 29 35 39 44 50 54 60 66 70 72 74 79 82 84 90 97 96 97 101 100 97 95 92 89 86 84 83 79 76 75 74 72 71 71 71 70 69 68 68 67 67 67
91 168 222 226 198 188 196 188 158 122 119 119 153 186 232 219 251 256 233 309 345 185 267 41 296 269 267 339 353 356 51 44 19 55 57 43 51 38 37 30 16 11 5 23 29 32 38 45 51 57 61 66 67 67 72 77 80 83 88 91 92 95 100 98 97 97 93 91 89 86 85 83 80 77 76 74 73 73 73 71 70 70 69 68 68 67
99 218 237 226 160 128 116 154 163 172 161 153 153 170 253 227 254 283 287 336 13 179 256 22 321 266 269 33 16 30 65 62 26 63 64 53 62 44 38 28 14 12 9 20 21 24 34 42 51 58 61 65 67 69 75 79 82 86 88 90 93 96 99 100 101 100 97 95 93 91 89 87 83 80 78 78 77 75 73 72 72 71 71 71 71 70
184 244 244 195 138 125 99 126 138 143 173 190 167 171 239 211 180 272 283 326 15 114 240 334 309 276 152 46 30 43 82 92 59 65 62 62 71 56 59 47 25 24 16 17 12 18 31 41 50 56 60 66 71 74 77 81 84 85 88 92 97 100 100 101 102 102 101 100 98 95 92 91 89 85 84 83 79 76 74 73 73 72 72 72 72 72
218 243 205 128 141 161 159 140 141 153 217 230 204 203 225 203 203 231 264 315 2 27 8 118 317 301 204 210 283 33 85 83 41 59 58 40 61 66 74 61 39 35 19 16 8 11 27 40 49 57 64 69 72 74 78 83 85 86 89 94 100 103 105 105 105 105 106 105 103 102 99 96 92 86 84 81 76 75 75 73 73 73 73 74 73 73
248 231 130 110 135 167 161 175 183 178 200 272 227 211 217 212 210 218 54 31 22 352 323 86 318 294 301 252 200 193 150 42 13 47 57 12 37 61 68 56 34 34 22 27 27 23 34 47 57 65 70 73 75 77 82 88 91 92 93 96 101 106 108 110 110 111 111 110 109 106 100 94 88 81 77 76 76 75 76 75 74 74 74 74 73 73
245 204 138 141 146 155 168 221 220 172 148 271 242 205 207 199 180 173 139 112 132 242 300 63 161 251 312 312 189 167 137 61 336 19 306 280 39 83 102 70 36 27 16 30 37 41 49 57 64 67 72 77 80 84 89 94 97 98 98 98 100 103 106 109 111 114 114 110 106 102 96 91 88 85 81 80 81 80 80 79 78 76 74 73 73 73
174 136 118 149 140 148 179 233 217 159 138 235 245 155 162 170 172 171 154 159 209 234 327 7 136 199 290 292 201 147 133 98 244 233 247 235 212 199 172 110 103 49 355 31 35 43 57 66 70 73 78 84 88 93 96 98 100 103 103 102 102 102 103 106 108 109 108 105 102 99 97 93 91 91 88 86 84 83 83 81 78 76 75 73 72 72
147 163 181 162 142 176 202 225 187 159 154 242 201 120 134 149 156 146 136 162 235 53 301 296 147 186 263 269 334 128 167 232 226 214 212 208 209 202 189 180 155 230 283 108 78 64 76 84 86 88 91 95 98 99 100 101 102 104 105 105 105 103 103 104 104 104 102 102 102 101 99 96 94 93 92 89 86 84 82 79 76 75 73 72 71 70
113 198 192 153 153 199 206 278 182 168 185 193 126 96 80 75 83 94 114 124 70 85 240 243 188 189 268 275 271 136 225 234 212 202 199 197 204 202 192 183 176 196 243 181 161 141 121 114 109 107 106 105 105 104 104 104 104 105 106 106 104 102 102 102 102 102 102 102 102 101 100 99 96 94 92 90 85 81 78 76 73 70 69 68 67 66
314 287 186 145 168 185 142 60 108 145 146 143 114 78 60 43 43 49 62 91 73 273 246 238 212 179 260 273 232 187 222 201 169 166 181 195 205 205 201 187 183 186 193 220 184 152 140 130 125 120 116 112 111 110 109 107 106 106 106 106 104 103 103 103 103 102 102 102 101 100 99 98 96 94 91 86 81 77 75 72 69 67 65 64 62 61
346 350 247 195 149 129 102 65 40 58 101 114 97 94 90 14 12 26 359 45 120 251 257 267 250 165 205 261 245 215 234 180 162 168 174 187 199 199 198 191 190 192 193 217 203 163 147 138 135 129 121 118 116 113 111 110 110 109 109 108 107 105 105 104 103 102 101 100 98 97 96 94 91 88 85 81 77 73 70 68 66 63 61 59 57 55
296 228 237 166 156 137 114 83 40 23 42 90 99 112 113 2 11 4 305 278 218 246 272 286 180 171 229 249 232 202 212 215 205 185 176 182 187 188 192 189 187 189 193 201 200 182 162 149 144 136 128 124 120 117 115 114 114 113 113 112 110 107 106 105 103 101 99 97 95 94 92 90 87 84 81 78 75 71 68 65 62 58 56 53 50 48
269 276 200 145 224 183 149 142 136 175 183 163 152 139 137 112 83 254 262 271 257 251 291 296 202 183 264 266 224 186 203 226 227 224 199 187 183 183 183 179 182 190 196 201 200 194 178 164 155 145 136 131 126 122 121 120 120 118 117 115 113 111 109 107 104 102 99 96 94 93 91 89 86 83 79 76 73 70 65 61 58 55 52 49 46 43
195 273 199 170 197 183 175 174 154 148 154 185 175 134 146 154 158 211 217 210 238 254 303 305 238 185 205 262 260 218 267 288 253 239 228 207 187 169 162 167 182 194 198 201 202 200 189 175 164 154 145 138 133 130 127 126 125 123 121 119 117 115 112 109 106 103 100 98 96 93 91 88 85 82 79 75 71 67 63 58 55 52 49 46 43 39
171 263 246 212 289 167 177 185 123 117 128 222 132 108 162 186 151 156 187 173 172 262 279 246 231 221 189 217 301 314 306 303 295 232 197 200 180 151 161 182 191 201 201 199 200 202 195 184 174 165 155 147 140 136 133 131 130 128 125 123 119 117 115 111 108 105 102 101 98 95 92 88 84 79 76 72 68 64 60 55 51 48 44 41 37 33
136 278 289 18 16 145 174 185 114 119 168 153 132 174 219 183 118 114 205 101 86 229 254 190 219 276 304 253 302 9 315 281 294 224 189 185 171 163 184 196 198 205 201 198 199 198 195 189 183 174 163 155 148 143 139 137 136 134 131 128 124 120 118 114 111 108 106 104 101 97 93 88 83 77 73 69 65 60 54 50 45 40 36 32 28 24
150 253 299 76 121 290 246 134 68 28 128 124 179 210 196 120 92 108 189 14 52 234 266 205 203 224 160 224 302 46 258 243 220 206 186 178 177 184 196 200 204 206 198 199 199 198 199 195 188 180 170 162 155 149 145 142 140 138 135 132 129 125 123 119 116 114 111 108 105 101 96 90 83 77 72 67 61 54 47 43 38 32 28 25 21 17
142 166 300 8 145 304 8 102 75 3 75 128 195 195 113 140 162 100 163 195 198 233 282 282 224 218 192 201 199 197 219 218 199 189 192 191 189 193 200 203 206 203 193 197 197 199 203 199 192 183 175 167 160 154 149 146 144 142 139 137 134 130 128 127 125 122 118 114 109 105 102 94 86 78 71 64 56 46 39 36 30 26 23 20 15 11
131 162 261 324 245 192 38 102 165 216 324 58 85 99 69 150 168 153 163 167 183 215 278 293 271 239 225 200 183 197 206 193 179 187 200 199 195 196 198 199 201 198 193 196 197 199 200 198 194 186 178 171 164 159 154 151 150 148 146 144 141 138 136 135 132 128 124 120 115 112 107 100 90 79 67 56 44 32 29 27 22 19 17 12 8 7
98 160 211 302 318 165 166 214 187 183 179 118 128 167 186 105 123 192 224 122 136 175 210 279 283 255 245 202 185 201 207 187 181 186 194 198 199 201 201 199 197 194 195 198 196 195 195 196 196 189 181 173 166 163 160 159 157 155 154 152 148 146 145 143 141 137 132 128 126 120 112 105 92 75 56 41 30 23 21 18 14 13 11 6 3 3
146 153 167 163 172 185 225 260 194 183 179 158 176 190 186 172 132 176 252 190 110 182 182 212 274 264 247 202 184 197 206 192 187 184 188 196 199 202 205 202 197 195 198 201 195 188 190 194 195 190 184 177 173 170 168 166 165 163 161 158 155 153 152 151 150 147 143 140 138 129 118 108 86 63 40 26 20 16 14 11 9 8 5 2 1 0
142 114 123 166 206 213 252 310 62 206 160 131 189 199 177 183 143 170 227 220 134 224 142 120 276 276 264 224 200 215 205 185 186 186 192 202 202 202 205 201 201 205 203 196 187 185 190 195 195 190 186 183 180 177 174 173 171 169 166 163 162 161 159 159 159 158 155 153 148 137 124 110 81 52 24 14 12 11 10 7 5 3 359 358 356 355
136 109 114 223 302 327 316 343 39 38 87 142 227 168 158 200 162 169 215 162 162 203 135 100 264 266 274 258 230 241 213 179 194 196 195 204 206 202 203 204 206 207 198 180 179 188 194 196 194 191 190 188 186 183 181 179 177 173 171 170 170 169 167 168 169 167 167 164 157 150 146 129 75 32 9 8 8 6 5 2 359 356 353 352 351 350
180 150 133 144 161 3 346 278 189 313 232 209 216 164 182 188 119 63 50 112 213 201 155 183 241 230 223 304 311 319 123 204 218 205 196 202 202 199 204 208 206 195 182 175 180 190 194 194 193 194 194 192 190 189 186 183 181 178 176 176 177 177 175 176 177 175 176 176 173 171 165 133 40 12 2 2 3 360 359 358 355 352 350 349 348 348
157 161 159 165 192 212 206 191 199 199 187 195 178 177 210 189 160 152 140 180 238 197 151 202 240 234 316 306 293 293 292 247 231 203 205 213 206 206 209 206 198 185 185 187 185 190 193 194 197 197 197 196 194 193 189 185 183 181 181 181 182 183 182 180 180 180 183 185 183 180 169 107 5 357 356 358 359 358 356 354 352 350 349 348 347 346
117 167 189 189 205 207 188 187 179 128 127 162 188 188 195 195 181 164 142 205 211 149 199 231 234 259 267 238 236 249 231 232 229 194 204 218 215 217 214 199 190 186 190 186 181 189 194 197 200 199 200 200 199 197 191 187 186 185 185 184 183 186 185 181 181 184 187 187 184 185 189 255 342 353 357 357 357 356 353 350 348 346 345 344 343 342
113 201 207 197 217 209 158 155 165 142 167 197 204 210 208 198 182 182 206 213 156 142 247 241 195 226 243 200 201 229 217 221 233 207 209 219 217 213 197 181 186 188 188 182 184 193 195 197 200 201 203 203 201 200 194 190 191 191 190 189 187 185 184 183 185 186 185 186 189 199 214 264 343 355 356 354 353 349 346 344 342 340 339 338 337 337
132 210 202 178 228 237 140 142 166 165 201 208 209 224 223 207 187 198 220 214 163 203 252 244 170 216 233 188 201 218 204 206 220 210 206 210 203 191 178 184 195 194 191 189 192 195 192 195 202 203 204 203 201 200 196 194 195 194 193 192 189 186 186 187 187 186 186 192 200 209 218 281 343 351 350 348 345 340 338 337 335 334 333 332 332 333
137 206 166 156 233 259 145 148 163 172 201 216 222 230 228 217 202 211 228 220 203 228 245 99 165 234 230 179 205 219 199 193 204 180 170 180 185 186 189 198 202 199 196 195 196 194 193 200 205 205 203 201 202 201 199 198 198 196 193 192 189 189 189 189 188 189 193 201 206 212 222 280 329 338 338 337 336 334 332 331 329 328 327 327 328 329
165 180 121 127 209 283 111 134 159 192 201 221 242 238 218 191 208 220 229 217 210 239 240 185 231 251 231 180 204 226 179 160 188 176 175 196 195 185 193 204 203 202 202 200 197 196 200 204 204 202 202 203 204 204 203 202 199 196 194 193 192 191 190 190 191 194 199 205 208 214 234 281 313 325 328 330 331 330 328 326 325 324 323 324 325 326
163 156 69 106 183 252 183 162 171 171 165 247 254 244 184 167 209 213 206 196 189 207 226 229 240 248 229 186 196 218 189 186 214 204 190 211 204 187 196 203 203 204 200 198 201 203 206 205 201 202 204 206 206 206 205 203 198 195 195 195 194 192 191 192 194 198 201 205 211 221 247 286 308 319 322 325 326 325 324 323 322 322 321 322 323 324
152 150 118 143 183 235 140 162 152 110 86 258 255 230 184 192 204 159 181 209 198 192 201 223 235 231 183 163 185 218 215 211 224 214 200 212 204 196 205 205 207 210 201 199 204 204 206 206 206 207 209 208 208 208 207 203 199 197 197 196 195 193 193 194 196 200 203 206 216 233 260 289 306 313 316 321 322 321 321 320 320 321 320 321 322 323
160 157 164 171 172 171 67 115 124 156 215 244 266 201 193 199 188 178 208 214 202 201 211 234 238 175 148 173 196 214 215 208 214 211 206 208 195 195 210 211 211 215 211 210 210 209 211 212 213 214 214 213 212 209 207 204 201 200 198 196 196 195 195 197 198 200 205 209 221 243 270 289 301 308 311 315 316 316 317 317 318 320 319 320 322 323
168 167 172 148 138 131 105 120 163 217 227 251 344 335 223 195 184 197 224 229 208 210 224 241 238 199 193 205 198 184 193 201 210 215 217 215 196 188 206 220 219 214 211 211 209 212 214 212 213 215 215 215 213 208 204 201 200 199 197 196 196 195 197 200 200 201 206 213 227 247 270 285 294 301 304 307 310 313 315 316 318 318 318 319 321 321
169 168 152 118 132 115 126 178 205 241 265 351 348 332 32 91 133 176 252 259 227 207 208 223 236 235 223 207 158 129 153 164 302 247 231 226 209 194 203 222 224 216 213 214 214 216 216 214 214 216 214 212 208 204 201 199 198 197 195 194 196 197 198 200 201 203 208 216 230 248 266 280 288 293 298 302 308 311 313 314 316 316 316 317 318 319
166 166 160 176 181 146 167 210 239 325 296 264 269 243 169 133 143 154 214 254 235 195 184 200 232 242 224 156 132 131 119 78 340 277 241 226 216 208 212 225 230 229 234 242 246 245 241 233 226 221 214 207 203 201 200 198 196 195 193 193 195 198 200 201 203 206 211 219 233 249 265 276 282 289 297 303 307 310 312 314 315 314 315 316 316 319
173 185 190 204 199 146 163 218 253 282 261 242 204 200 172 142 149 144 166 266 254 189 180 191 220 232 192 124 138 132 95 72 291 276 253 226 214 211 222 237 242 241 245 250 253 252 245 233 223 216 209 201 199 200 199 196 195 193 193 194 196 197 200 202 205 209 214 222 235 250 264 274 282 290 298 302 306 309 310 312 313 313 315 316 317 318
86 40 207 212 204 158 180 219 218 229 255 247 179 190 166 145 130 101 66 283 252 200 185 189 212 217 164 143 159 135 113 151 248 261 250 219 210 202 208 233 241 240 244 248 246 239 227 213 205 201 199 198 198 199 198 197 195 194 195 196 197 198 202 205 208 211 215 225 238 251 264 274 283 291 297 300 304 307 309 310 311 312 313 315 316 317
111 79 199 215 217 201 206 226 231 238 263 207 172 181 207 170 115 91 296 270 245 211 189 180 199 202 157 150 155 144 156 189 223 243 228 195 193 198 201 214 226 228 232 233 228 223 211 201 196 193 197 202 202 200 198 196 195 196 198 198 198 202 206 208 210 213 217 227 240 252 265 276 284 290 295 298 301 304 307 309 309 310 312 313 314 315
148 156 189 214 223 220 220 229 250 252 234 190 179 177 174 130 84 123 236 241 196 197 198 182 189 180 151 153 160 177 203 201 187 199 180 142 151 195 212 217 220 225 230 225 216 209 201 200 202 204 207 208 204 201 199 196 195 198 199 199 202 207 209 208 210 214 220 230 243 255 267 276 282 288 292 296 299 301 304 306 307 308 311 312 313 313
164 156 208 211 213 224 225 225 256 261 196 140 147 183 163 129 131 218 228 209 164 181 194 195 188 170 163 172 180 199 216 184 152 152 143 155 177 204 207 201 197 206 214 211 208 205 200 199 202 207 211 209 205 204 201 197 198 199 200 202 207 209 208 207 212 218 224 233 246 256 266 275 280 285 290 293 295 298 301 303 304 306 308 310 311 312
165 155 200 209 189 164 215 215 230 256 174 133 125 110 224 187 202 207 180 120 167 168 173 192 196 178 176 185 199 214 215 162 170 192 187 197 217 216 192 188 194 205 206 202 207 208 204 203 205 209 211 210 208 206 202 199 200 201 202 206 209 207 206 209 215 220 227 237 249 259 267 273 278 283 287 290 291 294 298 300 301 303 306 309 310 311
180 170 196 219 192 158 195 221 216 167 167 158 148 164 206 196 181 160 148 158 203 178 169 187 203 194 187 189 201 213 214 212 221 214 202 217 227 212 202 207 212 217 218 215 214 212 207 208 211 211 211 211 210 207 205 203 203 202 205 208 208 205 207 212 216 221 231 242 252 261 266 270 275 279 282 285 288 291 295 298 299 301 305 308 309 311
213 180 175 197 204 179 187 211 217 119 172 184 183 192 193 181 167 161 153 157 188 196 179 186 200 199 197 195 191 192 203 219 223 207 202 222 224 205 208 221 223 225 227 225 221 216 213 213 213 211 210 211 211 209 207 205 205 206 208 208 206 206 209 213 218 224 234 245 252 258 263 266 270 275 278 282 286 289 293 296 297 300 305 307 308 309
236 145 142 154 233 255 237 161 155 172 200 206 219 212 154 160 180 171 156 166 189 186 176 188 198 195 192 187 178 188 209 213 211 213 215 223 232 224 220 228 232 231 229 226 223 221 217 214 213 212 212 212 212 210 209 207 208 211 212 208 206 209 212 215 220 226 234 243 250 255 260 264 268 272 276 280 283 287 292 295 297 300 304 306 307 308
276 138 141 192 206 248 264 172 162 186 208 212 223 229 212 219 210 182 172 184 184 179 188 196 187 176 179 178 181 202 218 207 200 215 222 219 229 234 226 229 235 234 229 226 225 221 214 209 210 213 214 215 215 213 211 209 210 212 214 210 208 210 213 215 221 228 235 241 247 254 260 265 268 270 274 277 281 284 289 293 297 300 302 305 306 306
246 140 157 218 202 189 225 227 226 292 283 240 223 229 242 237 214 200 202 168 130 156 195 199 168 152 166 185 195 206 215 205 198 208 218 218 223 227 227 232 238 238 234 229 223 217 212 211 213 215 217 219 219 215 212 210 210 211 211 210 209 210 212 216 222 228 234 240 246 253 259 264 267 269 271 274 278 282 287 290 292 293 297 301 303 303
135 148 174 191 190 202 262 239 339 357 326 282 238 230 241 235 210 205 202 148 133 161 191 206 202 183 182 195 199 200 209 209 200 201 210 215 219 222 228 236 241 240 235 227 220 217 216 218 220 220 222 223 222 217 213 211 210 210 210 210 210 211 214 218 223 227 233 239 244 249 255 260 264 268 272 274 276 279 283 286 289 292 296 299 302 304
144 187 180 131 178 237 225 183 167 155 258 245 225 224 233 229 202 191 185 172 186 197 192 202 220 214 209 211 197 188 206 217 205 201 211 219 220 224 230 237 241 240 235 228 222 220 221 225 227 226 226 226 223 219 216 213 210 210 211 211 212 215 216 219 223 227 232 237 241 245 251 256 260 266 272 275 279 281 282 284 289 295 298 299 302 303
182 198 182 164 204 224 199 185 186 191 218 229 216 218 228 214 180 194 215 211 210 208 194 196 213 218 223 223 207 197 207 219 205 199 210 228 229 230 234 236 236 237 233 225 218 220 224 227 228 228 227 226 223 220 218 215 211 210 211 211 213 216 218 221 224 228 233 239 242 245 248 253 258 263 270 276 282 287 291 292 291 291 293 296 299 295